EW9518 Weather Reports


Display with metric or nautical units.
time (UTC)temp
F
wind
direction
speed
MPH
gust
MPH
rain 1hr
in
rain 24hr
in
rain mn
in
humidity
%
barometer
mb
20200407235526 87 284 2.0 11.0 0.00 0.00 0.00 35 1007.3
20200407235020 87 284 0.0 12.0 0.00 0.00 0.00 35 1007.3
20200407234531 87 273 6.0 12.0 0.00 0.00 0.00 34 1007.4
20200407234034 87 256 1.0 10.0 0.00 0.00 0.00 34 1007.4
20200407233015 87 286 3.0 11.0 0.00 0.00 0.00 34 1007.4
20200407232533 88 283 3.0 11.0 0.00 0.00 0.00 33 1007.3
20200407232015 88 268 5.0 14.0 0.00 0.00 0.00 34 1007.2
20200407231535 88 219 4.0 17.0 0.00 0.00 0.00 32 1007.2
20200407231013 89 282 11.0 17.0 0.00 0.00 0.00 32 1007.2
20200407230513 88 252 3.0 14.0 0.00 0.00 0.00 33 1007.3
20200407230049 88 254 5.0 14.0 0.00 0.00 0.00 33 1007.4
20200407225512 88 246 7.0 15.0 0.00 0.00 0.00 33 1007.3
20200407225012 88 255 3.0 15.0 0.00 0.00 0.00 32 1007.3
20200407224524 88 236 3.0 17.0 0.00 0.00 0.00 32 1007.3
20200407224012 89 241 9.0 17.0 0.00 0.00 0.00 31 1007.3
20200407223020 89 238 8.0 18.0 0.00 0.00 0.00 32 1007.3
20200407222510 89 255 9.0 18.0 0.00 0.00 0.00 32 1007.4
20200407222022 89 248 4.0 19.0 0.00 0.00 0.00 31 1007.3
20200407221527 89 236 7.0 19.0 0.00 0.00 0.00 32 1007.5
20200407221008 89 254 7.0 15.0 0.00 0.00 0.00 32 1007.5
20200407220508 89 271 9.0 17.0 0.00 0.00 0.00 32 1007.7
20200407220020 89 278 11.0 17.0 0.00 0.00 0.00 32 1007.8
20200407215505 89 258 3.0 17.0 0.00 0.00 0.00 33 1007.9
20200407215012 89 243 9.0 17.0 0.00 0.00 0.00 32 1007.9
20200407214512 88 269 7.0 15.0 0.00 0.00 0.00 33 1007.9
20200407214004 87 205 6.0 16.0 0.00 0.00 0.00 33 1008.1
20200407213006 89 259 8.0 20.0 0.00 0.00 0.00 33 1008.1
20200407212503 88 238 10.0 20.0 0.00 0.00 0.00 34 1008.1
20200407212002 88 277 4.0 13.0 0.00 0.00 0.00 35 1008.4
20200407211506 88 222 3.0 16.0 0.00 0.00 0.00 34 1008.5
20200407211001 89 180 7.0 16.0 0.00 0.00 0.00 34 1008.5
20200407210605 88 209 5.0 11.0 0.00 0.00 0.00 35 1008.7
20200407210239 88 226 3.0 18.0 0.00 0.00 0.00 36 1008.7
20200407205557 87 253 7.0 20.0 0.00 0.00 0.00 36 1008.9
20200407205057 87 198 8.0 20.0 0.00 0.00 0.00 36 1008.9
20200407204634 86 214 5.0 18.0 0.00 0.00 0.00 36 1009.1
20200407204128 87 150 8.0 16.0 0.00 0.00 0.00 35 1009.1
20200407203555 86 178 3.0 19.0 0.00 0.00 0.00 36 1009.3
20200407203255 86 198 3.0 19.0 0.00 0.00 0.00 36 1009.4
20200407202607 86 223 10.0 17.0 0.00 0.00 0.00 37 1009.4
20200407202053 86 220 3.0 13.0 0.00 0.00 0.00 38 1009.5
20200407201641 86 249 0.0 16.0 0.00 0.00 0.00 37 1009.7
20200407201216 86 208 8.0 15.0 0.00 0.00 0.00 38 1009.7
20200407200549 87 279 7.0 15.0 0.00 0.00 0.00 38 1009.9
20200407200207 86 253 5.0 16.0 0.00 0.01 0.00 39 1010.0
20200407195554 86 249 5.0 16.0 0.00 0.01 0.00 38 1010.1
20200407195046 85 190 3.0 16.0 0.00 0.01 0.00 38 1010.1
20200407194737 85 259 7.0 23.0 0.00 0.01 0.00 38 1010.1
20200407194045 85 200 10.0 23.0 0.00 0.01 0.00 38 1010.4
20200407193555 86 227 8.0 17.0 0.00 0.01 0.00 37 1010.5
20200407193054 86 216 7.0 17.0 0.00 0.01 0.00 38 1010.5
20200407192544 85 194 2.0 11.0 0.00 0.01 0.00 39 1010.5
20200407192043 85 197 4.0 20.0 0.00 0.01 0.00 38 1010.7
20200407191657 85 255 9.0 21.0 0.00 0.01 0.00 38 1010.7
20200407191050 86 246 8.0 21.0 0.00 0.01 0.00 39 1010.8
20200407190555 85 237 7.0 17.0 0.00 0.01 0.00 39 1010.9
20200407190112 84 260 10.0 17.0 0.00 0.01 0.00 39 1010.9
20200407185539 84 239 7.0 16.0 0.00 0.01 0.00 39 1011.0
20200407185039 84 259 8.0 15.0 0.00 0.01 0.00 40 1011.2
20200407184614 84 200 6.0 16.0 0.00 0.01 0.00 40 1011.3
20200407184037 84 273 5.0 16.0 0.00 0.01 0.00 39 1011.3
20200407183535 83 240 7.0 20.0 0.00 0.01 0.00 41 1011.4
20200407183147 83 271 9.0 20.0 0.00 0.01 0.00 41 1011.4
20200407182536 83 212 7.0 16.0 0.00 0.01 0.00 42 1011.5
20200407182035 82 243 5.0 19.0 0.00 0.01 0.00 44 1011.6
20200407181541 82 258 11.0 19.0 0.00 0.01 0.00 44 1011.8
20200407181032 82 244 11.0 18.0 0.00 0.01 0.00 44 1011.8
20200407180532 82 241 1.0 17.0 0.00 0.01 0.00 45 1011.8
20200407180045 81 240 8.0 17.0 0.00 0.01 0.00 45 1012.0
20200407175537 81 244 5.0 18.0 0.00 0.01 0.00 46 1012.0
20200407175031 81 288 5.0 19.0 0.00 0.01 0.00 47 1012.0
20200407174634 81 252 6.0 19.0 0.00 0.01 0.00 47 1012.1
20200407174033 81 268 9.0 15.0 0.00 0.01 0.00 46 1012.1
20200407173539 81 225 6.0 19.0 0.00 0.01 0.00 47 1012.1
20200407173049 81 281 7.0 19.0 0.00 0.01 0.00 47 1012.1
20200407172540 81 285 5.0 19.0 0.00 0.01 0.00 48 1012.1
20200407172033 80 265 7.0 16.0 0.00 0.01 0.00 48 1012.2
20200407171543 80 264 2.0 18.0 0.00 0.01 0.00 50 1012.3
20200407171028 80 279 10.0 18.0 0.00 0.01 0.00 51 1012.3
20200407170529 79 275 6.0 20.0 0.00 0.01 0.00 53 1012.6
20200407170123 79 250 9.0 17.0 0.00 0.01 0.00 52 1012.6
20200407165525 79 293 6.0 15.0 0.00 0.01 0.00 55 1012.8
20200407165020 79 260 3.0 15.0 0.00 0.01 0.00 55 1012.9
20200407164541 78 252 4.0 18.0 0.00 0.01 0.00 56 1012.9
20200407164024 78 246 9.0 18.0 0.00 0.01 0.00 57 1013.0
20200407163516 77 259 3.0 14.0 0.00 0.01 0.00 59 1013.1
20200407163032 77 224 4.0 14.0 0.00 0.01 0.00 58 1013.1
20200407162518 77 242 3.0 14.0 0.00 0.01 0.00 59 1013.2
20200407162018 77 232 0.0 13.0 0.00 0.01 0.00 59 1013.2
20200407161520 77 268 1.0 13.0 0.00 0.01 0.00 62 1013.1
20200407161018 76 257 0.0 12.0 0.00 0.01 0.00 63 1013.1
20200407160513 76 240 1.0 15.0 0.00 0.01 0.00 62 1013.2
20200407160037 75 283 3.0 15.0 0.00 0.01 0.00 65 1013.2
20200407155511 75 235 0.0 5.0 0.00 0.01 0.00 67 1013.3
20200407155013 75 248 0.0 6.0 0.00 0.01 0.00 69 1013.2
20200407154521 74 204 0.0 9.0 0.00 0.01 0.00 70 1013.2
20200407154009 74 225 0.0 9.0 0.00 0.01 0.00 71 1013.2
20200407153511 73 199 0.0 10.0 0.00 0.01 0.00 74 1013.1
20200407153004 73 240 0.0 10.0 0.00 0.01 0.00 74 1013.1
20200407152503 73 243 1.0 10.0 0.00 0.01 0.00 75 1013.0
20200407152003 73 225 0.0 4.0 0.00 0.01 0.00 77 1013.0
20200407151100 71 175 0.0 1.0 0.00 0.01 0.00 85 1013.0
20200407150610 70 165 0.0 1.0 0.00 0.01 0.00 85 1012.9
20200407150221 70 206 0.0 3.0 0.00 0.01 0.00 86 1012.8
20200407145555 70 177 0.0 3.0 0.00 0.01 0.00 86 1012.7
20200407145054 69 201 0.0 1.0 0.00 0.01 0.00 87 1012.7
20200407144856 69 188 0.0 6.0 0.00 0.01 0.00 87 1012.6
20200407144100 68 272 0.0 6.0 0.00 0.01 0.00 87 1012.8
20200407143551 68 202 0.0 1.0 0.00 0.01 0.00 87 1012.9
20200407142615 68 175 0.0 3.0 0.00 0.01 0.00 88 1012.9
20200407142050 68 188 0.0 5.0 0.00 0.01 0.00 89 1012.9
20200407141704 67 170 0.0 1.0 0.00 0.01 0.00 90 1013.0
20200407141048 67 175 0.0 1.0 0.00 0.01 0.00 90 1012.8
20200407140546 66 184 0.0 1.0 0.00 0.01 0.00 91 1012.8
20200407140122 66 177 0.0 7.0 0.00 0.01 0.00 91 1013.0
20200407135552 66 184 0.0 8.0 0.00 0.01 0.00 91 1013.0
20200407135105 66 183 0.0 8.0 0.00 0.01 0.00 91 1013.2
20200407134633 66 187 0.0 2.0 0.00 0.01 0.00 92 1013.2
20200407134100 65 194 0.0 1.0 0.00 0.01 0.00 92 1013.2
20200407133543 65 199 0.0 1.0 0.00 0.01 0.00 92 1013.1
20200407132542 65 190 0.0 7.0 0.00 0.01 0.00 92 1012.8
20200407132049 65 209 0.0 3.0 0.00 0.01 0.00 93 1013.0
20200407131740 65 238 0.0 1.0 0.00 0.01 0.00 93 1013.0
20200407131104 64 219 0.0 1.0 0.00 0.01 0.00 92 1012.9
20200407130539 65 194 0.0 0.0 0.00 0.01 0.00 92 1012.9
20200407130112 65 190 0.0 0.0 0.00 0.01 0.00 92 1012.9
20200407125536 65 221 0.0 0.0 0.00 0.01 0.00 92 1012.8
20200407125044 65 209 0.0 2.0 0.00 0.01 0.00 92 1012.8
20200407124630 65 197 0.0 7.0 0.00 0.01 0.00 92 1012.7
20200407124034 65 202 0.0 7.0 0.00 0.01 0.00 92 1012.6
20200407123548 65 224 0.0 5.0 0.00 0.01 0.00 92 1012.6
20200407122542 65 211 0.0 3.0 0.00 0.01 0.00 92 1012.4
20200407122032 65 188 0.0 3.0 0.00 0.01 0.00 92 1012.4
20200407121617 65 191 0.0 4.0 0.00 0.01 0.00 92 1012.4
20200407121032 65 186 0.0 6.0 0.00 0.01 0.00 92 1012.2
20200407120536 65 205 0.0 6.0 0.00 0.01 0.00 92 1012.3
20200407120054 65 205 0.0 6.0 0.00 0.01 0.00 91 1012.3
20200407115532 65 188 0.0 8.0 0.00 0.01 0.00 91 1012.3
20200407115046 65 197 1.0 8.0 0.00 0.01 0.00 91 1012.2
20200407114918 65 188 0.0 7.0 0.00 0.01 0.00 91 1012.1
20200407114032 65 204 0.0 6.0 0.00 0.01 0.00 91 1012.0
20200407113530 65 212 0.0 12.0 0.00 0.01 0.00 91 1011.9
20200407112542 65 200 0.0 4.0 0.00 0.01 0.00 91 1011.9
20200407112041 65 217 0.0 3.0 0.00 0.01 0.00 91 1012.0
20200407111616 65 227 0.0 6.0 0.00 0.01 0.00 90 1012.1
20200407111031 65 204 0.0 4.0 0.00 0.01 0.00 90 1012.1
20200407110534 65 209 0.0 9.0 0.00 0.01 0.00 90 1012.1
20200407110045 65 191 1.0 12.0 0.00 0.01 0.00 90 1012.0
20200407105530 65 186 1.0 12.0 0.00 0.01 0.00 90 1012.0
20200407105031 65 203 0.0 13.0 0.00 0.01 0.00 90 1012.0
20200407104610 65 188 2.0 13.0 0.00 0.01 0.00 90 1012.1
20200407104031 65 243 0.0 11.0 0.00 0.01 0.00 90 1012.0
20200407103533 65 182 2.0 13.0 0.00 0.01 0.00 90 1012.0
20200407102635 65 221 0.0 9.0 0.00 0.01 0.00 90 1012.0
20200407102037 66 207 0.0 9.0 0.00 0.01 0.00 89 1011.9
20200407101608 66 204 0.0 9.0 0.00 0.01 0.00 90 1011.9
20200407101031 66 182 1.0 9.0 0.00 0.01 0.00 89 1011.8
20200407100531 66 178 1.0 18.0 0.00 0.01 0.00 89 1011.9
20200407100114 66 189 2.0 18.0 0.00 0.01 0.00 89 1011.9
20200407095531 65 205 0.0 10.0 0.00 0.01 0.00 90 1011.8
20200407095109 65 211 0.0 10.0 0.00 0.01 0.00 90 1011.7
20200407094029 65 229 0.0 3.0 0.00 0.01 0.00 90 1011.7
20200407093529 65 217 0.0 5.0 0.00 0.01 0.00 90 1011.7
20200407092527 65 210 0.0 7.0 0.00 0.01 0.00 90 1011.5
20200407091038 65 189 0.0 9.0 0.00 0.01 0.00 90 1011.6
20200407090525 65 184 1.0 8.0 0.00 0.01 0.00 91 1011.5
20200407090027 65 200 0.0 10.0 0.00 0.01 0.00 91 1011.6
20200407085526 65 167 1.0 10.0 0.00 0.01 0.00 91 1011.7
20200407085036 65 196 1.0 9.0 0.00 0.01 0.00 91 1011.7
20200407084525 65 189 1.0 11.0 0.00 0.01 0.00 91 1011.6
20200407084024 65 195 0.0 12.0 0.00 0.01 0.00 91 1011.7
20200407083530 65 226 0.0 12.0 0.00 0.01 0.00 91 1011.8
20200407082526 65 198 0.0 3.0 0.00 0.01 0.00 91 1011.7
20200407082029 65 172 0.0 6.0 0.00 0.01 0.00 91 1011.8
20200407081616 65 184 0.0 6.0 0.00 0.01 0.00 91 1011.8
20200407081024 65 217 0.0 3.0 0.00 0.01 0.00 91 1011.9
20200407080523 65 207 0.0 7.0 0.00 0.01 0.00 91 1011.8
20200407080029 65 197 0.0 7.0 0.00 0.01 0.00 91 1011.9
20200407075536 65 193 0.0 13.0 0.00 0.01 0.00 91 1012.0
20200407075058 65 229 1.0 13.0 0.00 0.01 0.00 91 1012.0
20200407074555 65 198 0.0 9.0 0.00 0.01 0.00 90 1011.9
20200407074020 65 237 0.0 14.0 0.00 0.01 0.00 90 1011.9
20200407073526 65 241 0.0 14.0 0.00 0.01 0.00 90 1011.9
20200407072525 65 217 1.0 12.0 0.00 0.01 0.00 90 1011.9
20200407072022 65 191 3.0 13.0 0.00 0.01 0.00 90 1012.1
20200407071609 65 206 1.0 10.0 0.00 0.01 0.00 90 1012.2
20200407071024 65 178 0.0 10.0 0.00 0.01 0.00 90 1012.0
20200407070520 65 202 0.0 7.0 0.00 0.01 0.00 90 1012.1
20200407070057 65 200 0.0 10.0 0.00 0.01 0.00 90 1012.1
20200407065528 65 207 0.0 10.0 0.00 0.01 0.00 90 1012.0
20200407065018 65 190 0.0 4.0 0.00 0.01 0.00 90 1012.1
20200407064601 65 195 0.0 3.0 0.00 0.01 0.00 90 1012.2
20200407064023 65 198 0.0 6.0 0.00 0.01 0.00 90 1012.2
20200407063525 65 191 0.0 6.0 0.00 0.01 0.00 90 1012.2
20200407062516 65 186 0.0 2.0 0.00 0.01 0.00 89 1012.0
20200407062028 66 185 0.0 10.0 0.00 0.01 0.00 89 1012.1
20200407061619 66 185 0.0 10.0 0.00 0.01 0.00 89 1012.0
20200407061014 66 181 0.0 13.0 0.00 0.01 0.00 89 1012.3
20200407060514 66 231 1.0 13.0 0.00 0.01 0.00 88 1012.3
20200407060022 66 175 0.0 7.0 0.00 0.01 0.00 88 1012.3
20200407055514 66 171 0.0 8.0 0.00 0.01 0.00 88 1012.2
20200407055013 66 215 0.0 7.0 0.00 0.01 0.00 88 1012.1
20200407054528 66 171 0.0 7.0 0.00 0.01 0.00 88 1012.2
20200407054016 66 190 0.0 7.0 0.00 0.01 0.00 88 1012.2
20200407053512 66 195 0.0 6.0 0.00 0.01 0.00 88 1012.1
20200407052519 66 198 1.0 8.0 0.00 0.01 0.00 88 1012.4
20200407052014 66 184 1.0 13.0 0.00 0.01 0.00 88 1012.4
20200407051522 66 186 2.0 13.0 0.00 0.01 0.00 89 1012.4
20200407051016 66 177 0.0 11.0 0.00 0.01 0.00 89 1012.2
20200407050511 66 209 2.0 11.0 0.00 0.01 0.00 88 1012.2
20200407050026 66 187 0.0 9.0 0.00 0.01 0.01 88 1012.0
20200407045511 66 189 2.0 9.0 0.00 0.01 0.01 88 1012.0
20200407045011 66 198 1.0 11.0 0.00 0.01 0.01 88 1012.1
20200407044521 66 189 1.0 12.0 0.00 0.01 0.01 88 1012.1
20200407044010 66 182 0.0 10.0 0.00 0.01 0.01 88 1012.0
20200407043510 67 186 0.0 13.0 0.00 0.01 0.01 87 1012.0
20200407042510 67 207 0.0 8.0 0.00 0.01 0.01 87 1012.2
20200407042008 67 193 0.0 6.0 0.00 0.01 0.01 87 1011.8
20200407041509 67 188 0.0 9.0 0.00 0.01 0.01 87 1011.9
20200407041008 67 173 1.0 9.0 0.00 0.01 0.01 87 1012.2
20200407040507 67 171 0.0 8.0 0.00 0.01 0.01 86 1012.2
20200407040011 67 202 0.0 8.0 0.00 0.01 0.01 86 1012.1
20200407035507 67 181 0.0 13.0 0.00 0.01 0.01 86 1012.3
20200407035011 67 189 0.0 13.0 0.00 0.01 0.01 86 1012.4
20200407034507 67 169 0.0 7.0 0.00 0.01 0.01 86 1012.5
20200407034007 67 178 0.0 7.0 0.00 0.01 0.01 86 1012.4
20200407033509 67 178 0.0 8.0 0.00 0.01 0.01 86 1012.6
20200407032508 67 185 0.0 5.0 0.00 0.01 0.01 86 1012.5
20200407032007 67 163 0.0 10.0 0.00 0.01 0.01 86 1012.4
20200407031507 67 187 0.0 11.0 0.00 0.01 0.01 86 1012.4
20200407031007 67 192 2.0 11.0 0.00 0.01 0.01 86 1012.3
20200407030507 67 186 0.0 10.0 0.00 0.01 0.01 86 1012.3
20200407030018 67 169 1.0 9.0 0.00 0.01 0.01 85 1012.0
20200407025511 68 160 0.0 8.0 0.00 0.01 0.01 85 1012.0
20200407025006 68 175 0.0 7.0 0.00 0.01 0.01 84 1011.9
20200407024526 68 177 0.0 6.0 0.00 0.01 0.01 84 1011.8
20200407024006 68 182 0.0 11.0 0.00 0.01 0.01 83 1011.8
20200407023509 68 186 0.0 11.0 0.00 0.01 0.01 83 1011.6
20200407022506 68 164 0.0 5.0 0.00 0.01 0.01 82 1011.3
20200407022006 69 183 0.0 5.0 0.00 0.01 0.01 82 1011.2
20200407021510 69 175 0.0 3.0 0.00 0.01 0.01 81 1011.3
20200407021012 69 184 0.0 2.0 0.00 0.01 0.01 80 1011.2
20200407020520 69 169 0.0 2.0 0.00 0.01 0.01 80 1011.1
20200407020018 69 177 0.0 1.0 0.00 0.01 0.01 79 1011.1
20200407015005 69 169 0.0 1.0 0.00 0.01 0.01 78 1011.1
20200407014527 69 170 0.0 1.0 0.00 0.01 0.01 78 1011.0
20200407014005 69 174 0.0 5.0 0.00 0.01 0.01 77 1011.0
20200407013505 69 157 0.0 5.0 0.00 0.01 0.01 77 1011.0
20200407012512 70 192 0.0 0.0 0.00 0.01 0.01 77 1011.1
20200407012010 70 191 0.0 0.0 0.00 0.01 0.01 77 1010.9
20200407011509 70 191 0.0 2.0 0.00 0.01 0.01 76 1010.8
20200407011005 70 191 0.0 3.0 0.00 0.01 0.01 76 1010.8
20200407010504 70 192 0.0 3.0 0.00 0.01 0.01 76 1010.9
20200407010010 71 191 0.0 3.0 0.00 0.01 0.01 75 1011.0
20200407005506 71 207 0.0 0.0 0.00 0.01 0.01 75 1011.1
20200407005022 71 188 0.0 4.0 0.00 0.01 0.01 74 1011.1
20200407004505 71 190 0.0 4.0 0.00 0.01 0.01 74 1011.0
20200407004004 71 178 0.0 3.0 0.00 0.01 0.01 74 1011.0
20200407003504 71 190 0.0 1.0 0.00 0.01 0.01 74 1010.9
20200407002503 72 198 0.0 5.0 0.00 0.01 0.01 74 1011.0
20200407002003 72 177 0.0 3.0 0.00 0.01 0.01 74 1011.0
20200407001507 72 196 0.0 2.0 0.00 0.01 0.01 74 1011.0
20200407001016 72 186 0.0 2.0 0.00 0.01 0.01 74 1010.9
20200407000508 72 186 0.0 3.0 0.00 0.01 0.01 74 1010.9
20200407000017 72 188 0.0 3.0 0.00 0.01 0.01 74 1010.7